Weather History for Spirit of St Louis, MO

Change the Weather History Date:

Tuesday, August 6, 2013

  Actual Average Record
Temperature  
Mean Temperature 79 °F -  
Max Temperature 88 °F 85 °F 100 °F (2006)
Min Temperature 71 °F 63 °F 50 °F (1997)
Cooling Degree Days 14    
Growing Degree Days 29 (Base 50)    
Moisture  
Dew Point 70 °F    
Average Humidity 80    
Maximum Humidity 96    
Minimum Humidity 53    
Precipitation  
Precipitation 0.00 in - - ()
Sea Level Pressure  
Sea Level Pressure 29.86 in    
Wind  
Wind Speed 3 mph (SSW)    
Max Wind Speed 13 mph    
Max Gust Speed 16 mph    
Visibility 8 miles    
Events      
Averages and records for this station are not official NWS values.
T = Trace of Precipitation, MM = Missing Value Source: NWS Daily Summary

Daily Weather History Graph

Daily Weather History Graph

Search for Another Location

Airport:

Trip Planner

Search our weather history database for the weather conditions in past years. The results will help you decide how hot, cold, wet, or windy it might be!

Date:

Astronomy

Aug. 06, 2013 Rise Set
Actual Time 6:08 AM CDT 8:07 PM CDT
Civil Twilight 5:39 AM CDT 8:36 PM CDT
Nautical Twilight 5:04 AM CDT 9:11 PM CDT
Astronomical Twilight 4:25 AM CDT 9:49 PM CDT
Moon 5:59 AM CDT (8/6) 7:43 PM CDT (8/6)
Length of Visible Light 14h 56m
Length of Day
13h 58m
Waning Crescent, 0% of the Moon is Illuminated
Aug 6
Waning Crescent
Aug 6
New
Aug 14
First Quarter
Aug 20
Full
Aug 28
Last Quarter

Hourly Weather History & Observations

Time (CDT) Temp. Heat Index Dew Point Humidity Pressure Visibility Wind Dir Wind Speed Gust Speed Precip Events Conditions
12:54 AM 71.1 °F - 69.1 °F 93% 29.90 in 6.0 mi Calm Calm - N/A   Overcast
1:54 AM 71.1 °F - 69.1 °F 93% 29.86 in 5.0 mi ESE 3.5 mph - N/A   Overcast
2:06 AM 71.6 °F - 69.8 °F 94% 29.87 in 3.0 mi Calm Calm - N/A   Overcast
2:20 AM 71.6 °F - 69.8 °F 94% 29.86 in 2.5 mi Calm Calm - N/A   Overcast
2:54 AM 71.1 °F - 70.0 °F 96% 29.85 in 3.0 mi Calm Calm - N/A   Overcast
3:54 AM 71.1 °F - 70.0 °F 96% 29.86 in 5.0 mi Variable 3.5 mph - N/A   Overcast
4:26 AM 71.6 °F - 69.8 °F 94% 29.88 in 8.0 mi Calm Calm - N/A   Overcast
4:54 AM 72.0 °F - 70.0 °F 93% 29.86 in 8.0 mi East 3.5 mph - N/A   Overcast
5:54 AM 72.0 °F - 70.0 °F 93% 29.86 in 2.5 mi Calm Calm - N/A   Overcast
6:54 AM 72.0 °F - 70.0 °F 93% 29.90 in 3.0 mi SW 3.5 mph - N/A   Overcast
7:49 AM 73.4 °F - 69.8 °F 88% 29.92 in 10.0 mi WSW 9.2 mph - 0.00 in   Overcast
7:54 AM 73.9 °F - 70.0 °F 87% 29.90 in 10.0 mi WSW 8.1 mph - 0.00 in   Overcast
8:54 AM 73.9 °F - 70.0 °F 87% 29.90 in 10.0 mi Calm Calm - N/A   Overcast
9:54 AM 75.9 °F - 69.1 °F 79% 29.89 in 10.0 mi Calm Calm - N/A   Overcast
10:54 AM 78.1 °F - 70.0 °F 76% 29.89 in 10.0 mi WSW 4.6 mph - N/A   Overcast
11:10 AM 78.8 °F - 69.8 °F 74% 29.91 in 10.0 mi Variable 3.5 mph - N/A   Partly Cloudy
11:54 AM 80.1 °F 83.2 °F 70.0 °F 71% 29.87 in 10.0 mi West 4.6 mph - N/A   Clear
12:54 PM 82.9 °F 87.5 °F 71.1 °F 67% 29.86 in 10.0 mi Variable 3.5 mph - N/A   Scattered Clouds
1:54 PM 86.0 °F 90.7 °F 70.0 °F 59% 29.84 in 10.0 mi Variable 6.9 mph - N/A   Scattered Clouds
2:54 PM 87.1 °F 90.6 °F 68.0 °F 53% 29.84 in 10.0 mi West 12.7 mph - N/A   Scattered Clouds
3:54 PM 87.1 °F 91.3 °F 69.1 °F 55% 29.83 in 10.0 mi WSW 11.5 mph 16.1 mph N/A   Scattered Clouds
4:54 PM 86.0 °F 90.7 °F 70.0 °F 59% 29.83 in 10.0 mi SW 3.5 mph - N/A   Scattered Clouds
5:54 PM 84.0 °F 88.4 °F 70.0 °F 63% 29.83 in 10.0 mi SW 3.5 mph - N/A   Partly Cloudy
6:54 PM 84.9 °F 88.8 °F 69.1 °F 59% 29.82 in 10.0 mi Calm Calm - N/A   Scattered Clouds
7:54 PM 80.1 °F 83.8 °F 72.0 °F 76% 29.82 in 10.0 mi SSE 3.5 mph - N/A   Clear
8:54 PM 80.1 °F 83.6 °F 71.1 °F 74% 29.83 in 10.0 mi SSE 4.6 mph - N/A   Clear
9:54 PM 78.1 °F - 71.1 °F 79% 29.85 in 10.0 mi SE 5.8 mph - N/A   Clear
10:54 PM 77.0 °F - 72.0 °F 84% 29.86 in 10.0 mi SSE 4.6 mph - N/A   Clear
11:54 PM 77.0 °F - 72.0 °F 84% 29.87 in 10.0 mi South 5.8 mph - N/A   Scattered Clouds